Location: Veytaux
(46.4185°N, 6.9320°E)
Time: 08:56:22
(UTC+00:00)

ADEOS II - Pass Details

Date: 27 May 2022
Orbit: 799 x 800 km, 98.6° (Epoch: 01 July)

Event Time Altitude Azimuth Distance (km) Brightness Sun altitude
Rises 01:10:51 0° 19° (NNE) 3,318 7.0 -18.5°
Reaches altitude 10° 01:13:18 10° 26° (NNE) 2,383 5.8 -18.3°
Maximum altitude 01:18:19 44° 99° (E) 1,098 2.9 -18.0°
Enters shadow 01:21:44 19° 162° (SSE) 1,811 3.5 -17.7°
